This is the latest recevied weather packets stored in our database for station/object VK2XSE. If no packets are shown the sender has not sent any weather packets the latest 10 day(s).
| Time | Temp. | Humidity | Pressure | Rain* | Wind** | Luminosity | Snow |
|---|---|---|---|---|---|---|---|
| 1777949118 | 17.22° C | 62% | 1021.4 hPa | 0 mm | - | 132 W/m² | - |
| 1777948517 | 17.78° C | 63% | 1021.4 hPa | 0 mm | - | 88 W/m² | - |
| 1777947918 | 17.22° C | 67% | 1021.4 hPa | 0 mm | - | 706 W/m² | - |
| 1777947318 | 17.22° C | 67% | 1021.6 hPa | 0 mm | - | 673 W/m² | - |
| 1777946718 | 17.22° C | 68% | 1021.7 hPa | 0 mm | - | 257 W/m² | - |
| 1777946118 | 16.67° C | 65% | 1021.9 hPa | 0 mm | - | 190 W/m² | - |
| 1777945518 | 16.67° C | 67% | 1022 hPa | 0 mm | - | 324 W/m² | - |
| 1777944918 | 16.67° C | 66% | 1021.9 hPa | 0 mm | - | 605 W/m² | - |
| 1777944318 | 16.67° C | 67% | 1021.9 hPa | 0 mm | - | 583 W/m² | - |
| 1777943718 | 16.67° C | 69% | 1022 hPa | 0 mm | - | 574 W/m² | - |
| 1777943118 | 16.67° C | 69% | 1022.1 hPa | 0 mm | - | 553 W/m² | - |
| 1777942518 | 16.11° C | 71% | 1022.1 hPa | 0 mm | - | 491 W/m² | - |
| 1777941918 | 16.11° C | 74% | 1022 hPa | 0 mm | - | 512 W/m² | - |
| 1777941318 | 15.56° C | 74% | 1022 hPa | 0 mm | - | 514 W/m² | - |
| 1777940718 | 15.56° C | 75% | 1022.1 hPa | 0 mm | - | 483 W/m² | - |
| 1777940118 | 15° C | 78% | 1022.1 hPa | 0 mm | - | 451 W/m² | - |
| 1777939518 | 15° C | 80% | 1022.1 hPa | 0 mm | - | 448 W/m² | - |
| 1777938918 | 14.44° C | 80% | 1022.1 hPa | 0 mm | - | 425 W/m² | - |
| 1777938318 | 13.89° C | 82% | 1021.9 hPa | 0 mm | - | 404 W/m² | - |
| 1777937718 | 13.33° C | 84% | 1022 hPa | 0 mm | - | 379 W/m² | - |
| 1777937118 | 13.33° C | 85% | 1021.9 hPa | 0 mm | - | 358 W/m² | - |
| 1777936518 | 12.78° C | 88% | 1021.8 hPa | 0 mm | - | 324 W/m² | - |
| 1777935918 | 12.22° C | 91% | 1021.7 hPa | 0 mm | - | 297 W/m² | - |
| 1777935318 | 11.67° C | 93% | 1021.8 hPa | 0 mm | - | 268 W/m² | - |
| 1777934718 | 11.11° C | 94% | 1021.7 hPa | 0 mm | - | 245 W/m² | - |
* Rain latest hour (hover to see other rain measurements)
** Current wind speed in m/s (hover to see current wind gust speed)